TimeCST,TemperatureF,Dew PointF,Humidity,Sea Level PressureIn,VisibilityMPH,Wind Direction,Wind SpeedMPH,Gust SpeedMPH,PrecipitationIn,Events,Conditions,WindDirDegrees,DateUTC
12:15 AM,55.4,53.6,94,29.90,4.0,SSE,11.5,-,N/A,Thunderstorm,Overcast,150,2013-02-07 06:15:00
12:35 AM,55.4,53.6,94,29.89,2.5,SSE,9.2,16.1,N/A,,Overcast,160,2013-02-07 06:35:00
12:55 AM,55.4,53.6,94,29.93,2.5,NNE,5.8,-,N/A,Thunderstorm,Overcast,20,2013-02-07 06:55:00
1:15 AM,53.6,53.6,100,29.90,1.5,SE,6.9,-,N/A,,Overcast,140,2013-02-07 07:15:00
1:35 AM,55.4,53.6,94,29.90,1.2,SE,6.9,-,N/A,Thunderstorm,Overcast,130,2013-02-07 07:35:00
1:55 AM,53.6,53.6,100,29.89,1.0,SSE,8.1,-,N/A,,Overcast,150,2013-02-07 07:55:00
2:15 AM,53.6,53.6,100,29.89,0.8,SE,8.1,-,N/A,,Overcast,140,2013-02-07 08:15:00
2:35 AM,53.6,53.6,100,29.88,1.0,SE,8.1,-,N/A,Rain,Light Rain,140,2013-02-07 08:35:00
2:55 AM,53.6,53.6,100,29.88,1.5,SSE,6.9,-,N/A,,Drizzle,150,2013-02-07 08:55:00
3:15 AM,53.6,53.6,100,29.87,1.8,SE,6.9,-,N/A,,Overcast,140,2013-02-07 09:15:00
3:35 AM,53.6,53.6,100,29.87,2.0,SSE,8.1,-,N/A,,Overcast,150,2013-02-07 09:35:00
3:55 AM,55.4,53.6,94,29.86,2.0,SSE,8.1,-,N/A,,Overcast,150,2013-02-07 09:55:00
4:15 AM,55.4,53.6,94,29.85,2.5,SSE,6.9,-,N/A,,Overcast,160,2013-02-07 10:15:00
4:35 AM,55.4,53.6,94,29.85,2.0,SSE,6.9,-,N/A,,Overcast,160,2013-02-07 10:35:00
4:55 AM,55.4,55.4,100,29.85,3.0,South,5.8,-,N/A,,Overcast,170,2013-02-07 10:55:00
5:15 AM,55.4,55.4,100,29.84,3.0,SSE,8.1,-,N/A,,Overcast,150,2013-02-07 11:15:00
5:35 AM,55.4,55.4,100,29.84,3.0,SSE,8.1,-,N/A,,Overcast,160,2013-02-07 11:35:00
5:55 AM,55.4,55.4,100,29.84,3.0,South,6.9,-,N/A,,Overcast,170,2013-02-07 11:55:00
6:15 AM,55.4,55.4,100,29.84,3.0,SSE,10.4,-,N/A,,Overcast,160,2013-02-07 12:15:00
6:35 AM,55.4,55.4,100,29.83,3.0,SSE,9.2,-,N/A,,Overcast,160,2013-02-07 12:35:00
6:55 AM,55.4,55.4,100,29.83,3.0,South,9.2,-,N/A,,Overcast,180,2013-02-07 12:55:00
7:15 AM,55.4,55.4,100,29.84,3.0,South,6.9,-,N/A,,Overcast,180,2013-02-07 13:15:00
7:35 AM,57.2,55.4,94,29.84,4.0,South,6.9,-,N/A,,Overcast,180,2013-02-07 13:35:00
7:55 AM,57.2,55.4,94,29.85,3.0,South,6.9,-,N/A,,Overcast,180,2013-02-07 13:55:00
8:15 AM,57.2,55.4,94,29.85,3.0,South,6.9,-,N/A,,Overcast,180,2013-02-07 14:15:00
8:35 AM,57.2,55.4,94,29.85,3.0,South,5.8,-,N/A,,Overcast,170,2013-02-07 14:35:00
8:55 AM,57.2,55.4,94,29.85,4.0,SSE,4.6,-,N/A,,Overcast,160,2013-02-07 14:55:00
9:15 AM,59.0,55.4,88,29.85,5.0,South,4.6,-,N/A,,Overcast,170,2013-02-07 15:15:00
9:35 AM,59.0,55.4,88,29.85,5.0,South,8.1,-,N/A,,Overcast,170,2013-02-07 15:35:00
10:15 AM,62.6,55.4,77,29.84,10.0,SSW,6.9,-,N/A,,Overcast,200,2013-02-07 16:15:00
10:35 AM,64.4,55.4,73,29.85,10.0,SSW,9.2,-,N/A,,Overcast,200,2013-02-07 16:35:00
10:55 AM,64.4,55.4,73,29.85,10.0,SSW,8.1,-,N/A,,Overcast,210,2013-02-07 16:55:00
11:15 AM,66.2,53.6,64,29.85,10.0,SW,4.6,-,N/A,,Overcast,220,2013-02-07 17:15:00
11:35 AM,68.0,51.8,56,29.84,10.0,SW,6.9,-,N/A,,Overcast,230,2013-02-07 17:35:00
11:55 AM,69.8,51.8,53,29.84,10.0,SW,6.9,-,N/A,,Overcast,230,2013-02-07 17:55:00
12:15 PM,69.8,51.8,53,29.83,10.0,SW,4.6,-,N/A,,Mostly Cloudy,230,2013-02-07 18:15:00
12:35 PM,69.8,51.8,53,29.82,10.0,West,3.5,-,N/A,,Mostly Cloudy,280,2013-02-07 18:35:00
12:55 PM,69.8,50.0,49,29.82,10.0,SSW,5.8,-,N/A,,Scattered Clouds,210,2013-02-07 18:55:00
1:15 PM,71.6,50.0,46,29.82,10.0,WNW,5.8,-,N/A,,Mostly Cloudy,300,2013-02-07 19:15:00
1:35 PM,73.4,46.4,38,29.82,10.0,West,9.2,-,N/A,,Mostly Cloudy,260,2013-02-07 19:35:00
1:55 PM,71.6,44.6,38,29.82,10.0,NW,6.9,-,N/A,,Scattered Clouds,320,2013-02-07 19:55:00
2:15 PM,71.6,42.8,35,29.82,10.0,North,6.9,-,N/A,,Scattered Clouds,360,2013-02-07 20:15:00
2:35 PM,68.0,55.4,64,29.83,10.0,NE,12.7,-,N/A,,Mostly Cloudy,40,2013-02-07 20:35:00
2:55 PM,68.0,55.4,64,29.84,10.0,NNE,8.1,-,N/A,,Overcast,30,2013-02-07 20:55:00
3:15 PM,69.8,53.6,56,29.84,10.0,NNE,8.1,-,N/A,,Mostly Cloudy,30,2013-02-07 21:15:00
3:35 PM,69.8,55.4,60,29.85,10.0,NE,4.6,9.2,N/A,,Scattered Clouds,50,2013-02-07 21:35:00
3:55 PM,62.6,51.8,68,29.86,10.0,NNE,11.5,23.0,N/A,,Mostly Cloudy,20,2013-02-07 21:55:00
4:15 PM,60.8,50.0,68,29.88,10.0,North,11.5,24.2,N/A,,Scattered Clouds,10,2013-02-07 22:15:00
4:35 PM,59.0,50.0,72,29.91,10.0,NNE,17.3,25.3,N/A,,Clear,20,2013-02-07 22:35:00
4:55 PM,59.0,48.2,67,29.94,10.0,North,15.0,24.2,N/A,,Mostly Cloudy,10,2013-02-07 22:55:00
5:15 PM,55.4,46.4,72,29.95,10.0,NNE,12.7,21.9,N/A,,Overcast,20,2013-02-07 23:15:00
5:35 PM,55.4,46.4,72,29.97,10.0,NNE,13.8,25.3,N/A,,Overcast,20,2013-02-07 23:35:00
5:55 PM,55.4,46.4,72,29.98,10.0,NNE,13.8,24.2,N/A,,Overcast,20,2013-02-07 23:55:00
6:15 PM,53.6,46.4,77,29.99,10.0,North,13.8,20.7,N/A,,Overcast,10,2013-02-08 00:15:00
6:35 PM,53.6,46.4,77,30.00,10.0,NNE,11.5,17.3,N/A,,Overcast,20,2013-02-08 00:35:00
6:55 PM,53.6,46.4,77,30.01,10.0,North,11.5,18.4,N/A,,Overcast,10,2013-02-08 00:55:00
7:15 PM,53.6,46.4,77,30.02,10.0,North,10.4,17.3,N/A,,Overcast,10,2013-02-08 01:15:00
7:35 PM,53.6,46.4,77,30.03,10.0,North,9.2,18.4,N/A,,Overcast,10,2013-02-08 01:35:00
7:55 PM,51.8,46.4,82,30.05,10.0,North,13.8,20.7,N/A,,Overcast,10,2013-02-08 01:55:00
8:15 PM,51.8,44.6,76,30.06,10.0,North,10.4,21.9,N/A,,Overcast,360,2013-02-08 02:15:00
8:35 PM,51.8,44.6,76,30.07,10.0,North,9.2,19.6,N/A,,Overcast,10,2013-02-08 02:35:00
8:55 PM,50.0,42.8,76,30.07,10.0,NNE,11.5,19.6,N/A,,Scattered Clouds,20,2013-02-08 02:55:00
9:15 PM,50.0,42.8,76,30.08,10.0,NNE,8.1,-,N/A,,Clear,20,2013-02-08 03:15:00
9:35 PM,50.0,42.8,76,30.10,10.0,North,5.8,-,N/A,,Clear,360,2013-02-08 03:35:00
9:55 PM,50.0,42.8,76,30.11,10.0,North,6.9,-,N/A,,Clear,350,2013-02-08 03:55:00
10:15 PM,50.0,42.8,76,30.11,10.0,North,5.8,-,N/A,,Clear,10,2013-02-08 04:15:00
10:35 PM,50.0,41.0,71,30.12,10.0,North,5.8,-,N/A,,Clear,360,2013-02-08 04:35:00
10:55 PM,48.2,39.2,71,30.12,10.0,North,5.8,-,N/A,,Clear,360,2013-02-08 04:55:00
11:15 PM,48.2,37.4,66,30.13,10.0,North,9.2,-,N/A,,Clear,360,2013-02-08 05:15:00
11:35 PM,48.2,37.4,66,30.13,10.0,North,9.2,-,N/A,,Clear,360,2013-02-08 05:35:00
11:55 PM,46.4,37.4,71,30.14,10.0,North,6.9,-,N/A,,Clear,10,2013-02-08 05:55:00